Showing default

COSMOS 1637, 15619

Orbit data source: Space-Track

COSMOS 1637, 15619 is a payload satellite owned by GUKOS (CIS) in LEO that was launched on Thu, 21 Mar 1985 UTC via a KOSMOS 11K65M launch vehicle from the Plesetsk Missile And Space Complex (PKMTR). Payload-class satellites include a variety of spacecraft equipped with specific instruments for various scientific and technological missions. These include communications satellites like Starlink; space stations such as the ISS; scientific satellites like the Hubble; Earth observation satellites from companies like Planet Labs, Umbra, and HawkEye 360; GPS; miniature CubeSats for education and research; and military/defense satellites.

Loading next visibility...
Identifier
15619, 1985-023C
Orbit
LEO
Country
Flag of CISCIS
Related business
Manufacturer
NPO PM
Mission
Spacecraft
Bus & Motor
STRELA-1 11F625, Unknown motor
Mass
60 kg wet, 60 kg dry
Launch date (UTC)
1985-03-21 (41 years ago)
Launch vehicle
KOSMOS 11K65M
Launch site
Plesetsk Missile And Space Complex (PKMTR)
Object type
Payload
Rocket body
Debris
Shape & HBR
Unknown
Radar Cross Section
Medium (>0.1 m² and <1 m²)

Expand to show TLE details & history
Last TLE update: 20 hours ago

TLE from 20 hours ago
0 COSMOS 1637
1 15619U 85023C   25348.78119209  .00000001  00000-0  11075-3 0  9997
2 15619  74.0564 352.8599 0015556 210.8834 322.5052 12.47240670854783
Epoch: 2025-12-14T18:44Z
TLE epoch observation values (Epoch: 2025-12-14T18:44:54.996Z)
Latitude
6.39555°
Longitude
166.11555°
Altitude
1,468.148 km
Speed
7.134 km/s
True Right ascension
11h 24m 08s
True Declination
6° 21' 40"
Sunlit
Object was in daylight at epoch
Visualization orbit readout
Latitude
Unknown
Longitude
Unknown
Altitude
Unknown
Speed
Unknown
Apparent Right ascension
Unknown
Apparent Declination
Unknown
Sunlit
N/A
Visualization observer readout
Local Sidereal Time
13:22:53
Azimuth
Unknown
Elevation
Unknown
Doppler factor
Unknown
Orbital elements
Apogee altitude
1,486.109 km
Perigee altitude
1,461.679 km
Semi-major axis
7,852.031 km
Eccentricity
0.00156
Inclination
74.0564°
RAAN
352.8599°
Arg. of periapsis
210.8834°
True anomaly
322.39653°
Mean anomaly
322.5052°
Eccentric anomaly
322.45088°
Mean motion
3.11939 °/min
Orbital period
115.41 mins
BSTAR
0.00011075
Loading maneuver chart data...
Computing Atmospheric mass density...
Loading historical data...
Loading historical data...
Loading historical data...
Loading historical data...
Loading historical data...
Loading historical data...
Loading historical data...

Documentation

Showing up to 5 results
|